Location: Tel Aviv
(32.0670°N, 34.7670°E)
Time: 11:11:12
(UTC+03:00)

Transit 2A - Pass Details

Date: 31 January 2022
Orbit: 598 x 960 km, 66.7° (Epoch: 20 May)

Event Time Altitude Azimuth Distance (km) Brightness Sun altitude
Rises 09:45:18 0° 223° (SW) 3,462 9.5 31.7°
Reaches altitude 10° 09:47:51 10° 229° (SW) 2,571 8.9 32.0°
Maximum altitude 09:53:35 44° 301° (WNW) 1,277 7.1 32.7°
Drops below altitude 10° 09:59:37 10° 12° (NNE) 2,695 8.6 33.5°
Sets 10:02:21 0° 19° (NNE) 3,646 9.2 33.8°
